Race Results for
Foothill College Circuit Race: “The Learning Cur
Los Altos, CA
(Event Information)
Criterium on 07/31/2011

Note: Ranking points are NOT upgrade points. An explanation of ranking points can be found here.


Men - Cat1/2/3 - Master - 35-99

 Place Points NameCity, StateTime USAC #BibTeam
1140.65Matthew Carinio   San Luis Obispo, CA00:00.st 6109  202 ArtsCyclery.com/Wild Horse Win
2145.63Kevin Klein   Menlo Park, CA00:00.st 47388  238 Yahoo Cycling Team
3150.61Trevor White   Oakland, CA00:00.st 503  223 Hybrid Energy Products Cycling
4155.59Tracy Colwell   Sunnyvale, CA00:00.st 125475  225 Webcor/Alto Velo
5160.57Erick Pierce   Oakland, CA00:00.st 209459  215 AUDI
6165.55Anders Dellien   Redwood City, CA00:00.st 355166  204 CK Ringen
7170.53Nathan Erickson   San Luis Obispo, CA00:00.st 63004  236 ArtsCyclery.com/Wild Horse Win
8175.51David Avila   Emerald Hills, CA00:00.st 55625  240 One Team Racing
9180.49Keith DeFiebre   Prunedale, CA00:00.st 9046  234 California Giant Cycling
10185.47Matt Kramer   Los Gatos, CA00:00.st 183871  231 Kinetic Cycles/GBI
11190.45Brian Heneghan   San Jose, CA00:00.st 63508  207 SJBC
12195.43Toby Long   Oakland, CA00:00.st 262539  237 Kaiser Permanente/ Team Oaklan
13200.41Chris Ott   San Jose, CA00:00.st 26920  212 HDR Racing p/b Lombardi Sports
14205.39Eric Saltzman   Menlo Park, CA00:00.st 46157  219 SJBC
15210.37Joshua Dapice   Berkeley, CA00:00.st 141844  239 Audi
16215.35Greg Gomez   Mountain View, CA00:00.st 226091  244 Webcor/Alto Velo
17220.33Mark Davis (1 - Cat3)   Scotts Valley, CA00:00.st 64246  242 Audi
18225.31Jeremy Wire   Menlo Park, CA00:00.st 285056  233 SJBC
19230.29Matthew McNamara (1 - Cat2)   Sunnyvale, CA00:00.st 23775  224 Sterling Sports Group
20235.27Greg McQuaid   San Francisco, CA00:00.st 249424  209 IronDataThirstyBearCycling.com
21240.25Sean Tompkins   Morganhill, CA00:00.st 300546  221 SJBC
22245.23Dennis Hopp   San Jose, CA00:00.st 54895  208 SJBC
23250.21Philip Roberts   Oakland, CA00:00.st 30110  217 Cycles FANATIC Factory Racing
24255.19Kevin Barton   San Antonio, TX00:00.st 204437  200 Joes Pro Bikes
25260.17Thomas Dillon   Los Altos Hills, CA00:00.st 50011  205 Peninsula Velo/Pomodoro
26265.15Denin Sahovic   Sunnyvale, CA00:00.st 271126  241 Squadra Ovest
27270.13Eric Davis   Novato, CA00:00.st 207923  245 Kryki Sports
28275.11Jeromy Cottell   Redwood City, CA00:00.st 273912  203 Peninsula Velo / Pomodoro
29280.09Christopher Bosch   San Francisco, CA00:00.st 261766  227 Unattached
30285.07Gregory Anderson   Vacaville, CA00:00.st 90802  235 Morgan Stanley Smith Barney/Sp
31290.05Shawn Oliver   St. Helena, CA00:00.st 46241  229 Morgan Stanley Cycling Team
32295.03Tom Vanderheiden   Pleasant Hill, CA00:00.st 263253  222 Wells Fargo Racing Team
33300.01David Passmore   San Carlos, CA00:00.st 27378  214 Berkeley Bicycle Club (BBC)
34304.99Christian Parker   San Mateo, CA00:00.st 213926  213 CoreTechs Cycling Team
35309.97Matthew Beebe (2 - Cat2)   Redwood City, CA00:00.st 205076  201 Team Bell Lap
36314.95Dominic Giampaolo   Lewiston, ME00:00.st 196229  206 Webcor/Alto Velo
37319.93Patrick Tafoya   Redwood City, CA00:00.st 34910  228 SAFEWAY/Bicycles Plus/PureRed
38324.91Pablo Espinosa   Mountain View, CA00:00.st 50576  243 Audi
DNPWilliam Lico   San Jose00:00.st 134972  246 Christian Cycling-Hammer Nutri
DNPSteven Woo   Los Altos, CA00:00.st 38840  247 Third Pillar
DNPJohn Novitsky (Cat3)   Woodside, CA00:00.st 102274  232 VOS Racing
DNPGary Stein (Cat3)   San Francisco, CA00:00.st 159974  230 Third Pillar
DNPRobert Pasco   Belmont, CA00:00.st 136970  226 SAFEWAY/Bicycles Plus/PureRed
DNPCraig Stewart   Orinda, CA00:00.st 205201  220 Team Hammer Nutrition
DNPMarkus Roccaro   Burlingame, CA00:00.st 166766  218 Peninsula Velo/Pomodoro
DNPRonald Reade   Berkeley, CA00:00.st 53377  216 SAFEWAY/PureRed Creative/Bicyc
DNPJoe Molinari   Redwood City, CA00:00.st 24723  211 Form Fitness
DNPDylan McReynolds   Berkeley, CA00:00.st 23832  210 Berkeley Bicycle Club (BBC)

Men - Cat 5 - Open

 Place Points NameCity, StateTime USAC #BibTeam
1411.46Jacob Jedlicka   Sunnyvale, CA00:00.st 295980  522 Uzbekistan Express
2415.52Jesse MAYBERRY   Palo Alto, CA00:00.st 204157  546 
3419.58Justin Balderston   Newark, CA00:00.st 327014  501 unattched
4Alexander DE POTTERE   00:00.st  507 
5427.70Steven HEMBREE   Atascadero, CA00:00.st 358177  517 
6431.76Clint Williams   Rio Linda, CA00:00.st 331630  540 Team BEER
7435.82Charles McCabe   Novato, CA00:00.st 357059  526 
8439.88Marco Palmeri   San Mateo, CA00:00.st 286330  529 
9443.94Tyler Terhune   Fremont, CA00:00.st 352742  538 Webcor/Alto Velo
10448.00Chris Evans   Redwood City, CA00:00.st 321408  510 Webcor/Alto Velo
11452.06Mike Jarvis   Santa Clara, CA00:00.st 338984  521 
12456.12John Schiefer   Union City, CA00:00.st 319966  531 
13460.18Lee Slone   Campbell, CA00:00.st 324754  543 Sheila Moon Racing
14464.24Daniel Green   Oroville, CA00:00.st 356192  515 
15468.30Brandon Iles   Mountain View, CA00:00.st 335188  519 
16472.36Nicholas Leland   Windsor, CA00:00.st 334480  525 Windsor Bicycle Center
17Andrew GUSTAFSON   00:00.st  516 
18480.48Jordan Stockton   Redwood City, CA00:00.st 332784  537 Peninsula Velo Pomodoro
19484.54Scott Hoppe   Benicia, CA00:00.st 333196  518 
20488.60Andrew Czajkowski   Los Altos, CA00:00.st 244666  506 LGBRC
21492.66Ethan Smith   San Francisco, CA00:00.st 331724  534 
22496.72Kamron Shafai   Los Gatos, CA00:00.st 357010  533 
23500.78Magnus Gille   Mountain View, CA00:00.st 330394  514 Webcor/Alto Velo
24504.84Kevin Eck   New York, NY00:00.st 10425  509 unattached
25508.90Nick Leindecker   Stanford, CA00:00.st 249152  524 
26Charles DE POTTERE   00:00.st  508 
27517.02Gabriel Gandara   Sacramento, CA00:00.st 339042  512 Sac State
28Francisco INDRADJAJA   00:00.st  520 
29525.14Joshua Moran   Mountain View, CA00:00.st 294130  527 Webcor/Alto Velo
30529.20Al PAINTER   Mountain View, CA00:00.st 238297  528 
31533.26Stephen Bartnikowski   San Jose, CA00:00.st 356532  502 SJBC
32Taylor BATES   00:00.st  542 
33541.38Reginald Trimingham   Santa Cruz, CA00:00.st 357800  541 Unattached
34545.44Richard Stabler   Santa Rosa, CA00:00.st 33746  536 2 Wheel Cycling
35Kodi RIDER   00:00.st  530 
36553.56Mark Falls   Santa Rosa, CA00:00.st 340940  511 2wheel cycling
37557.62Roger Sohn   San Francisco, CA00:00.st 318582  535 Mission Cycling
38561.68John Chappell   Auburn, CA00:00.st 297614  504 
39565.74Manuel Calero   San Pablo, CA00:00.st 307277  503 
40569.80Zane Adamo   Bakersfield, CA00:00.st 353442  500 Bike Bakersfield Cycling
41573.86Josh Wallace   San Carlos, CA00:00.st 195757  539 Webcor/Alto Velo
42577.92Matthew Johnson   San Francisco, CA00:00.st 321598  523 
43581.98Weston Schmidt   Vacaville, CA00:00.st 333886  532 Monticello Cycling Club
44Chris CHU   00:00.st  544 
45590.10Jesse Gibbs   San Francisco, CA00:00.st 355130  513 
DNPAlexander Richardson   Davis, CA00:00.st 317688  545 Davis Bike Club Racing Team

Men - Cat 4 - Open

 Place Points NameCity, StateTime USAC #BibTeam
1193.12Colin Daw   Saratoga, CA00:00.st 257770  414 Wheel Away Cycle Center
2200.08giuseppe errico   Mountain View, CA00:00.st 353204  416 form fitness palo alto
3207.04Jonathan Barbus   Los Altos, CA00:00.st 295596  401 Sterling Sports Group
4214.00Jacob Gerhardt   Atascadero, CA00:00.st 305079  421 Dolce Vita Cycling
5220.96Daniel Lee   Petaluma, CA00:00.st 113898  427 windsor bicycle center
6227.92Branton Curt   Saratoga, CA00:00.st 218287  411 Los Gatos Bicycle Club
7234.88Andrew Duensing   Alamo, CA00:00.st 297709  415 NRL Racing Team
8241.84Bobby Abuyen   San Jose, CA00:00.st 333294  400 SJBC
9248.80joe walker   Aptos, CA00:00.st 331266  458 UCSC
10255.76Francisco Padilla   Vallejo, CA00:00.st 160213  433 
11262.72Jeong Kim   San Jose, CA00:00.st 63591  426 
12269.68Vitaly Gashpar   San Francisco, CA00:00.st 273905  419 Colavita NorCal
13276.64Percy Bautista   Pacifica, CA00:00.st 303915  403 Team Freewheel Bike Shop
14283.60Massimo Palumbo   Greenbrae, CA00:00.st 220827  437 
15290.56franco campilongo   Menlo Park, CA00:00.st 261918  407 Form Fitness Palo Alto
16297.52Mat Gordon   San Francisco, CA00:00.st 191313  459 Fusion Sport USA
17304.48Scott Freiermuth   Menlo Park, CA00:00.st 59509  417 CoreTechs Cycling
18311.44Patrick Callan   Fair Oaks, CA00:00.st 323184  405 Team Bicycles Plus/Sierra Neva
19318.40Alexander Yermolovich   Santa Clara, CA00:00.st 220894  456 
20325.36juan rosas   San Jose, CA00:00.st 332154  441 Aptos Bike Station
21332.32Adam OCamb   Orinda Ca00:00.st 297136  436 Tieni Duro
22339.28Daniel Williams   Fairfield, CA00:00.st 333518  455 Precision Stone Racing
23346.24Nicholas Tudoni   Burlingame, CA00:00.st 244476  452 
24353.20Brandon Tyler   Sanmateo, CA00:00.st 298307  454 Peninsula Velo/Pomodoro
25360.16Chris Furgiuele   San Francisco, CA00:00.st 310646  418 Dolce Vita Cycling
26367.12Charles Himes   Santa Rosa, CA00:00.st 16249  424 Windsor Bicycle Center
27374.08Ivan Poddubnyy   San Jose, CA00:00.st 266310  438 Webcor/AltoVelo
28381.04ERIC BROCKWAY   Santa Rosa, CA00:00.st 286737  404 Windsor Bicycle Center
29388.00Stefan Pommerenk   Hayward, CA00:00.st 325938  439 Peninsula Velo/Pomodoro
30394.96Sascha Messner   Fremont, CA00:00.st 280562  432 Taleo Racing
31401.92Charles Cushman   Carlsbad, CA00:00.st 276207  412 Celo Pacific
32408.88Chris Scheetz   Los Altos, CA00:00.st 216916  444 CoreTechs Cycling Team
33415.84Richard Hill   Campbell, CA00:00.st 267729  423 Los Gatos
34422.80Gregory Spanier   Alamo, CA00:00.st 332082  446 Taleo Racing
35429.76Jason Saltzman   Menlo Park, CA00:00.st 255580  442 SJBC
36436.72Eric Clauss   San Francisco, CA00:00.st 198040  409 Squadra Ovest Cycling
37443.68Alberto SantosDavidson   Kensington, CA00:00.st 318892  443 Peninsula Velo/Pomodoro
38450.64Nicholas Geiser   San Francisco, CA00:00.st 307862  420 Yale Bulldog Cycling
39457.60Andre Swart   San Jose, CA00:00.st 303151  450 Los Gatos Bicycle Racing Club
40464.56Eric Chi   Cupertino, CA00:00.st 223566  408 Webcor/Alto Velo
41471.52Liam Stewart   San Francisco, CA00:00.st 271049  449 Team Roaring Mouse
42478.48Jon Stevens   San Francisco, CA00:00.st 303462  448 Dolce Vita Cycling
43485.44Isaac Sparling   San Francisco, CA00:00.st 331080  447 Dolce Vita Cycling
44492.40Matthew Batz   Campbell, CA00:00.st 103222  402 Webcor/Alto Velo
45499.36John Luk   Millbrae, CA00:00.st 305015  429 Peninsula Velo/Pomodoro
46506.32Paul Wilson   San Francisco, CA00:00.st 267941  457 Judgement Velo/ TBOV
47513.28Peter Tousignant   Belmont, CA00:00.st 231855  451 third pillar
48520.24Nicholas Hack   Berkeley, CA00:00.st 281233  422 Team Roaring Mouse
49527.20John Becker   Sanfrancisco, CA00:00.st 284814  428 Team Roaring Mouse
50534.16Terrence Davis   Belmont Ca00:00.st 334538  413 University of California-Santa
51541.12Jason Neu   Los Gatos, CA00:00.st 305688  435 SJBC
52548.08Dan Romo   Campbell, CA00:00.st 306608  440 SJBC
53555.04Reid Smith   Moraga, CA00:00.st 300086  445 Tieni Duro
54562.00Steven Kelly   Cocoa, FL00:00.st 352036  425 SJBC
55568.96Alex Morishita   Fremont, CA00:00.st 335668  434 UC Irvine Cycling
56575.92Timothy Turnbull   Castroville, CA00:00.st 309759  453 los gatos bicycle racing club
57582.88David McGrath   Los Angeles, CA00:00.st 287060  431 Swami's Cycling Club
58589.84Michael Coppolino   San Francisco, CA00:00.st 237772  410 Unattached
DNPErik Camacho   San Jose, CA00:00.st 303224  406 SJBC
DNPGregg Machacz   Redwood City, CA00:00.st 178581  430 Sterling Sports Group

Men - Cat 3 - Open

 Place Points NameCity, StateTime USAC #BibTeam
1145.86Jeromy Cottell   Redwood City, CA00:00.st 273912  304 Peninsula Velo / Pomodoro
2150.96Sean Tompkins   Morganhill, CA00:00.st 300546  338 SJBC
3156.06Tobin Ortenblad   Santacruz, CA00:00.st 303586  348 Spokesman Bicycles
4161.16Anders Dellien   Redwood City, CA00:00.st 355166  306 CK Ringen
5166.26Kashy Ghazzagh   Santa Rosa, CA00:00.st 295719  310 Red Peloton
6171.36Ethan Sopenski   Chardon Ohio00:00.st 329942  354 SJBC
7176.46Evan Stade   Los Angeles, CA00:00.st 302395  335 Sho-Air/Rock N Road
8181.56Menko Johnson   Redwood City, CA00:00.st 18004  313 Peninsula Velo/Pomodoro
9186.66Ross Tinline   San Carlos, CA00:00.st 35623  337 Peninsula Velo/Pomodoro
10191.76Boris Rozenberg   Daly City, CA00:00.st 190311  329 
11196.86Denin Sahovic   Sunnyvale, CA00:00.st 271126  331 Squadra Ovest Cycling
12201.96Benjamin Barry   Arcata, CA00:00.st 289212  351 Team Becher +
13207.06Jeff Schaller   Davis, CA00:00.st 317858  333 Davis Bike Club
14212.16Eric Davis   Novato, CA00:00.st 207923  305 Audi
15217.26Henry Scholz   San Francisco, CA00:00.st 267795  357 Team Roaring Mouse
16222.36Thomas Dillon   Los Altos Hills, CA00:00.st 50011  307 Peninsula Velo/Pomodoro
17227.46Todd Norwood   Redwood City, CA00:00.st 158273  323 University of Southern Califor
18232.56Matt Schaupp   Watsonville, CA00:00.st 311816  349 Spokesman Bicycles
19237.66Roger Martin   Danville, CA00:00.st 276924  317 Wells Fargo Racing Team
20242.76Mario Hernandez   San Francisco, CA00:00.st 278649  311 Audi
21247.86Keven Bricknell   San Francisco, CA00:00.st 253261  356 Fusion Sport USA
22252.96Guy Van Natta   Clovis, CA00:00.st 218823  341 Central Valley Cycling
23258.06Aron Bonar   Mountain View, CA00:00.st 195327  360 Squadra Ovest Cycling
24263.16Mark Davis   Scotts Valley, CA00:00.st 64246  352 Audi
25268.26Matthew Abdalah   Los Altos, CA00:00.st 224627  343 Form Fitness
26273.36Cyrus Behroozi   Menlo Park, CA00:00.st 40408  301 Form Fitness
27278.46jimmy pham   Martinez, CA00:00.st 322442  345 Taleo Racing
28283.56Joe Molinari   Redwood City, CA00:00.st 24723  321 Form Fitness
29288.66Alvaro Mosquera   Sacramento, CA00:00.st 236809  322 Team Bicycles Plus/Sierra Neva
30293.76Randall Smith   San Carlos, CA00:00.st 185237  334 Peninsula Velo/Pomodoro
31298.86Justin Leopold   Independence, MO00:00.st 299868  316 Celerity Cycling p/b Brooks Sy
32303.96Michael Fee   Oakland, CA00:00.st 75599  353 Kaiser Permanente/ Team Oaklan
33309.06Jason James   Oakland, CA00:00.st 119309  312 Squadra Ovest Cycling
34314.16Tyron Hooper   San Francisco, CA00:00.st 251276  344 Fusion Sport USA
35319.26John Roberts   San Francisco, CA00:00.st 270329  326 Dolce Vita Cycling
36324.36Nick Kersmarki   Santa Rosa, CA00:00.st 226913  314 Red Peloton
37329.46Michael Miller   Menlo Park, CA00:00.st 220857  346 George's/BODE
38334.56Curtis Ruegg   Redwood City, CA00:00.st 331362  330 Peninsula Velo/Pomodoro
39339.66David Rossow   Los Gatos, CA00:00.st 232665  328 Webcor/Alto Velo
40344.76Anthony Lopipero   Pleasant Hill, CA00:00.st 305627  355 University of California-San D
41349.86Steven McGrath   Los Gatos, CA00:00.st 190585  318 
42354.96Mark Chaisson   Seattle, WA00:00.st 90030  303 Peninsula Velo/Pomodoro
43360.06Eric Zumwalt   Santa Rosa, CA00:00.st 53375  340 R4R Make-A-Wish
44365.16Rory Osbrink   Pleasanton, CA00:00.st 218676  324 Team Fremont/ FFBC powered by
45370.26Christian Parker   San Mateo, CA00:00.st 213926  325 CoreTechs Cycling Team
46375.36Markus Roccaro   Burlingame, CA00:00.st 166766  327 Peninsula Velo/Pomodoro
47380.46Jeff Watson   Elk Grove, CA00:00.st 293136  342 Team Bicycles Plus/Sierra Neva
49385.56Benjamin Dodge   San Jose, CA00:00.st 178595  358 Los Gatos Bicycle Racing Club
50390.66David Mesa   Crockett, CA00:00.st 243257  320 Chica Sexy Beauty Salon
51395.76Dylan McReynolds   Berkeley, CA00:00.st 23832  319 Berkeley Bicycle Club (BBC)
52400.86John Wilde   San Francisco, CA00:00.st 225246  347 Core Tech
DNPErnest Gallardo   Greenfield, CA00:00.st 90586  309 Vos Racing
DNPChristopher Bosch   San Francisco, CA00:00.st 261766  350 Unattached
DNPDan Tedford   Mountain View, CA00:00.st 196695  359 Squadra Ovest Cycling
DNPBernhard Stonas   Hayward, CA00:00.st 67169  336 BBC
DNPSteven Woo   Los Altos, CA00:00.st 38840  339 Third Pillar
DNPErik Salander   Belmont, CA00:00.st 195443  332 Peninsula Velo/Pomodoro
DNFTodd Kohli   San Francisco, CAAudi Cycling 198414  315 Kryki Sports

Men - Pro/Cat 1/2 - Open

 Place Points NameCity, StateTime USAC #BibTeam
1108.13William Myers   Carmichael, CA00:00.st 306325  19 Fremont Bank Cycling Team
2112.74James Mattis   Mountain View, CA00:00.st 127344  18 California Giant Berry Farms/S
3117.35Matthew Carinio   San Luis Obispo, CA00:00.st 6109  ArtsCyclery.com/Wild Horse Win
4121.96David Benkoski   Menlo Park, CA00:00.st 271685  41 Team Specialized Racing
5126.57Adam Carr   Colchester, VT00:00.st 208854  Form Fitness
6131.18Nathanael Christensen   Clements, CA00:00.st 239919  35 Michael David Winery
7135.79Neil Bartley   San Jose, CA00:00.st 209268  Squadra Ovest Cycling
8140.40John Wilk (1 - Cat1)   Oakland, CA00:00.st 199951  28 Webcor/Alto Velo
9145.01Mark Marquez   Martinez, CA00:00.st 288881  17 Fremont Bank Cycling Team
10149.62Keith Hillier   Millbrae, CA00:00.st 276108  42 Marc Pro-Strava
11154.23Marcus Smith   Pleasanton, CA00:00.st 209193  24 Team Specialized Racing Junior
12158.84Martin Acosta   East Palo Alto, CA00:00.st 291277  45 McGuire Cycling
13163.45Mark Manning   Redwood City, CA00:00.st 87090  16 AR NAV Supplies
14168.06Nathan Erickson   San Luis Obispo, CA00:00.st 63004  29 ArtsCyclery.com/Wild Horse Win
15172.67Ariel Herrmann   San Francisco, CA00:00.st 163046  12 Metromint Cycling
16177.28Aaron Gallardo   Woodland Hills Ca00:00.st 160366  40 Team Helen's
17181.89Carmi Schulman   Seattle, WA00:00.st 200292  23 Webcor/Alto Velo
18186.50Brian Funk   Menlo Park, CA00:00.st 289282  Cal Poly Wheelmen
19191.11Toby Long   Oakland, CA00:00.st 262539  37 Squadra Ovest
20195.72donald hahn (1 - Cat2)   Reno, NV00:00.st 280149  Marc Pro-Strava
21200.33Stephen McCaw   Sacramento, CA00:00.st 62322  39 Rocknasium
22204.94Elliot Hawkes   Stanford, CA00:00.st 275956  10 Metromint Cycling
23209.55Greg Davis   Los Altos, CA00:00.st 119459  Los Gatos
24214.16Brian Heneghan   San Jose, CA00:00.st 63508  11 SJBC
25218.77Garrett Peck (2 - Cat2)   Lafayette, CA00:00.st 213553  33 Davis Bicycle Racing Club
26223.38William Lloyd   Mountain View, CA00:00.st 66362  14 Six Fifty Racing
27227.99Erick Pierce   Oakland, CA00:00.st 209459  22 AUDI
28232.60Chris Ott   San Jose, CA00:00.st 26920  38 HDR Powered by Lombardi
29237.21Todd Stone   Carmichael, CA00:00.st 249318  26 Fremont Bank Cycling Team
30241.82James Enright   San Francisco, CA00:00.st 227219  Swamis
31246.43Joshua Dapice   Berkeley, CA00:00.st 141844  30 Audi
32251.04Rand Miller (2 - Cat1)   San Francisco, CA00:00.st 182990  32 Webcor/Alto Velo
33255.65William Zellmer   Missoula, MT00:00.st 225407  21 Team Specialized Racing Junior
34260.26Trevor White   Oakland, CA00:00.st 503  27 Hybrid Energy Products Cycling
35264.87Robert Evans (3 - Cat2)   Scotts Valley, CA00:00.st 72893  36 McGuire Cycling
36269.48Charlie Avis (1 - Pro)   Palo Alto, CA00:00.st 224306  34 Trek Livestrong U23 Team
DNPRobert MacNeill   San Carlos, CA00:00.st 199599  43 Webcor/Alto Velo
DNPAlexander Blease (Cat2)   Chico, CA00:00.st 195515  44 Fremont Bank
DNPPablo Espinosa   Mountain View, CA00:00.st 50576  31 Audi
DNPRobert Sorenson   Palo Alto, CA00:00.st 33491  25 Millcreek Bicycles
DNPJustin Lucke   Redwood City, CA00:00.st 21760  15 Los Gatos
DNPDavid Passmore   San Carlos, CA00:00.st 27378  20 Berkeley Bicycle Club (BBC)
DNPJames Coats (Cat2)   Campbell, CA00:00.st 7200  calif giant berry farms/specia

Men - Master - 45-54

 Place Points NameCity, StateTime USAC #BibTeam
1148.71Donald Langley   Morgan Hill, CA00:00.st 20327  609 Morgan Stanley Smith Barney/Sp
2157.15John O'Neill (1 - Cat2)   San Mateo, CA00:00.st 52722  617 Team Clover
3165.59Jeremy Wire   Menlo Park, CA00:00.st 285056  630 SJBC
4174.03Patrick Tafoya   Redwood City, CA00:00.st 34910  628 SAFEWAY/PureRed Creative/Bicyc
5182.47John Ford   Redwood City, CA00:00.st 129994  605 Morgan Stanley Smith Barney/Sp
6190.91Tim Lydon   Sunnyvale, CA00:00.st 21896  611 SJBC
7199.35Ross Tinline   San Carlos, CA00:00.st 35623  629 Peninsula Velo/Pomodoro
8207.79Steve Stewart   Los Gatos, CA00:00.st 34158  626 CoreTechs Cycling Team
9216.23Eric Saltzman   Menlo Park, CA00:00.st 46157  623 SJBC
10224.67Mark Manning   Redwood City, CA00:00.st 87090  612 AR NAV Supplies
11233.11Robert Pasco   Belmont, CA00:00.st 136970  632 SAFEWAY/Bicycles Plus/PureRed
12241.55Patrick McLaughlin   Lafayette, CA00:00.st 227027  636 Wells Fargo Racing Team
13249.99Mark Foster   Portola Valley, CA00:00.st 319704  606 Core Techs Cycling Team
14258.43Brian Mulroe   Mountain View, CA00:00.st 195684  633 Form Fitness
15266.87Dan Lindblom (1 - Cat4)   Menlo Park, CA00:00.st 196918  642 Unattached
16275.31Joseph Foster   Alamo, CA00:00.st 286823  637 Wells Fargo Racing Team
17283.75Erik Salander   Belmont, CA00:00.st 195443  622 Peninsula Velo/Pomodoro
18292.19Paul DeBacker   Mountain View, CA00:00.st 168436  604 Webcor/Alto Velo
19300.63Todd Munk   Morgan Hill, CA00:00.st 296426  614 SJBC
20309.07Guy Van Natta   Clovis, CA00:00.st 218823  631 Central Valley Cycling
21317.51Calvin Darling (2 - Cat4)   Mountain View, CA00:00.st 272309  603 Monta Vista Velo
22325.95Alan Takahashi   Cupertino, CA00:00.st 140979  634 Los Gatos Bicycle Racing Club
23334.39Bruce Wilford (2 - Cat2)   Los Altos, CA00:00.st 202372  639 Webcor/Alto Velo
24342.83Kevin Barton   San Antonio, TX00:00.st 204437  601 Joes Pro Bikes
25351.27Charles McCabe   Novato, CA00:00.st 357059  613 
26359.71Craig Stewart   Orinda, CA00:00.st 205201  627 Team Hammer Nutrition
27368.15James Coats (3 - Cat2)   Campbell, CA00:00.st 7200  602 calif giant berry farms/specia
28376.59Derrick Hemingway   San Jose, CA00:00.st 259077  638 San Jose Bicycle Club
29385.03B Thomas Rice   Redwood City, CA00:00.st 260611  620 NA
30393.47Chris Scheetz   Los Altos, CA00:00.st 216916  624 CoreTechs Cycling Team
31401.91Steven Olechny   Saratoga , CA00:00.st 142113  616 Taleo Racing
32410.35Darren Yap   Sosanfrancisco, CA00:00.st 291364  640 Pen Velo Pomodoro
33418.79Stefan Pommerenk   Hayward, CA00:00.st 325938  618 Peninsula Velo/Pomodoro
34427.23Richard Jones   Oakland, CA00:00.st 122040  608 Major Motion Cycling Club
35435.67Shawn Oliver   St. Helena, CA00:00.st 46241  635 Morgan Stanley Cycling Team
36444.11Ronald Reade   Berkeley, CA00:00.st 53377  619 SAFEWAY/PureRed Creative/Bicyc
37452.55Stephen Harris (3 - Cat4)   San Francisco, CA00:00.st 205958  607 Squadra Ovest Cycling
38460.99John Novitsky (1 - Cat3)   Woodside, CA00:00.st 102274  615 VOS Racing
39469.43Philippe Azoulay   San Jose, CA00:00.st 207662  600 SJBC
40477.87Rob Robinson (2 - Cat3)   Castro Valley, CA00:00.st 271386  621 Taleo Racing
DNPkevin coyne (Cat5)   Saratoga, CA00:00.st 353482  641 SJBC
DNPRichard Stabler   Santa Rosa, CA00:00.st 33746  625 2 Wheel Cycling

Men - Master - 55-99

 Place Points NameCity, StateTime USAC #BibTeam
1252.66Mark Caldwell   Moraga, CA00:00.st 40039  951 morgan stanley smith barney/sp
2Rick HYMAN   00:00.st  959 
3293.90Greg Bollella   Redwood City, CA00:00.st 235126  950 Webcor / Alto Velo
4314.52Thomas McDonough   Ukiah, CA00:00.st 68163  961 Fightin' Bobas
5335.14Raymond Gildea   Emerald Hills, CA00:00.st 133970  956 Peninsula Velo/ Pomodoro
6355.76Mark Perry   Auburn, CA00:00.st 288400  962 Rocknasium
7376.38Jonathan Sek   San Jose, CA00:00.st 45922  967 SJBC
8397.00Phillip Heiman   Penngrove, CA00:00.st 204100  957 Colavita Racing-Norcal
9417.62David Puglia   Saratoga, CA00:00.st 180139  966 Los Gatos Bicycle Racing Club
10438.24Nathan Smith   Oakland, CA00:00.st 51197  968 Major Motion Cycling Club
11458.86Bruce Coffey   Newman, CA00:00.st 271696  952 SJBC/SugarCRM
12479.48John Chappell (1 - Cat4)   Auburn, CA00:00.st 297614  970 
13500.10Peter Piepul (1 - Cat3)   San Jose, CA00:00.st 28118  963 SJBC
14Brerndan LEARY   00:00.st  960 
15541.34Mark Falls   Santa Rosa, CA00:00.st 340940  954 2wheel cycling
16561.96Ernest Gallardo   Soledad Ca.00:00.st 12682  955 Vos Racing
17582.58Michael Pollock   San Francisco, CA00:00.st 86698  964 Peninsula Velo/Pomodoro
DNPJohn Diemont   Richmond, CA00:00.st 71231  953 Alto Velo/Webcor
DNPChris Hoeber   Los Altos, CA00:00.st 333320  958 SJBC
DNPCraig Larsen   Santa Clara, CA00:00.st 65413  969 Monta Vista Velo

Men - Junior - 10-12

 Place Points NameCity, StateTime USAC #BibTeam
1480.18David Kleiman   Sunnyvale, CA00:00.st 286747  751 SJBC
2502.14Samuel Hill   Woodland, CA00:00.st 318306  750 Davis Bike Club Race Team
3524.10Skyler COLWELL   Sunnyvale, CA00:00.st 365446  755 
4546.06Connor Lydon   Sunnyvale, CA00:00.st 332108  754 SJBC
5Jack MCGRATH   00:00.st  753 
6Eric LAUTERBACH   00:00.st  752 

Men - Junior - 13-14

 Place Points NameCity, StateTime USAC #BibTeam
1311.88Robbie Farrens   Stockton, CA00:00.st 289433  901 DJs Produce - Rocket Sports-Tr
2346.02Jason Saltzman   Menlo Park, CA00:00.st 255580  903 SJBC
3380.16Fernando Padilla   Vallejo00:00.st 341214  905 
4Alex MARKOWITZ   00:00.st  904 
5448.44Matthew Dailey   Davis, CA00:00.st 330968  900 Davis Bike Club Juniors
6Julian RANGEL-BONILLA   00:00.st  902 

Men - Junior - 15-16

 Place Points NameCity, StateTime USAC #BibTeam
1331.41Robbie Farrens   Stockton, CA00:00.st 289433  700 DJs Produce - Rocket Sports Ra
2343.68Reid Smith   Moraga, CA00:00.st 300086  708 Tieni Duro
3355.95Alexander Richardson   Davis, CA00:00.st 317688  706 Davis Bike Club
4368.22Jordan Wolfe   Sanjose, CA00:00.st 282654  710 SJBC
5380.49Troy Strickland   San Ramon00:00.st 279824  709 SJBC
6Cooper VAN NATTA   00:00.st  702 Stevens Bicycles
7Sean FOX   00:00.st  701 

Men - Junior - 17-18

 Place Points NameCity, StateTime USAC #BibTeam
1247.93Adam OCamb   Orinda Ca00:00.st 297136  803 Tieni Duro
2268.16Henry Nelson   Oakland, CA00:00.st 289117  804 Tieni Duro
3288.39Travis Lyons   Walnut Creek, CA00:00.st 320598  802 Tieni Duro Junior Cycling Team
4308.62Zane Adamo   Bakersfield, CA00:00.st 353442  800 Bike Bakersfield Cycling
5328.85Ellis Anderson   Moraga, CA00:00.st 274504  801 Tieni Duro Junior Cycling Team
6Taylor BATES   00:00.st  805 
7369.31Reginald Trimingham   Santa Cruz, CA00:00.st 357800  806 Unattached

Women - Cat1/2 - Open

 Place Points NameCity, StateTime USAC #BibTeam
1140.85Hanan Alves-Hyde (1 - Cat2)   Albany, CA00:00.st 234966  115 Peanut Butter & Co/2012
2153.25Anne Fulton   Palo Alto, CA00:00.st 275624  109 Metromint Cycling
3165.65Jane Despas   Menlo Park, CA00:00.st 105201  101 Yahoo Cycling Team
4178.05Megan Melack   Santa Cruz, CA00:00.st 302381  105 RED Racing
5190.45Jerika Hutchinson (2 - Cat2)   Mount Shasta, CA00:00.st 219674  103 
6202.85Kira Prokopakis   Santa Clara, CA00:00.st 283149  113 Los Gatos
7Jamie CRAWFORD   00:00.st  117 Unattached
8227.65Lucia Mokres   Redwood City, CA00:00.st 262113  110 Los Gatos
9240.05Holly Liske (3 - Cat2)   Stanford, CA00:00.st 190109  114 Webcor Alto Velo
10252.45Josephine Morgan   Oakland, CA00:00.st 242553  111 Michael David Winery
11264.85Jennie Phillips   Danville, CA00:00.st 203722  106 Wells Fargo Racing Team
12277.25Amy Russo   Santa Cruz, CA00:00.st 134488  108 Red Racing
13289.65Kerry Barnholt   Mountain View, CA00:00.st 150226  112 
14302.05Kimberly Fong   Berkeley, CA00:00.st 238713  116 Michael David Winery
15314.45Christine Riker   San Francisco, CA00:00.st 290240  107 RED Racing
16326.85Lauraleen Fenech   San Francisco, CA00:00.st 224272  100 los gatos
17339.25Mary Magnani   San Francisco, CA00:00.st 257717  104 Red Racing
DNPApril Hamlin   El Dorado Hills, CA00:00.st 266244  102 Los Gatos

Women - Cat 4 - Open

 Place Points NameCity, StateTime USAC #BibTeam
1282.24Anne Findlay Dowling   Sonora, CA00:00.st 238310  463 Team Type 1
2293.99Sandra Miller   San Francisco, CA00:00.st 349396  470 Early Bird Womens Developmental Cycling Team
3305.74Michelle Bandoni   San Jose, CA00:00.st 305567  460 SJBC
4317.49Elena Joroski   San Jose, CA00:00.st 304925  467 SJBC
5329.24Pooja Bhatia   San Jose, CA00:00.st 306273  480 SJBC
6340.99Danielle Spires   Oakland, CA00:00.st 303311  479 Velo Girls
7352.74Jill Eyres   Montara, CA00:00.st 282468  462 Team TIBCO II
8364.49Yvonne Walbroehl   Mountain View, CA00:00.st 219164  478 Peninsula Velo/Pomodoro
9376.24Deanna McKenzie   Santarosa, CA00:00.st 303472  469 Fightin' Bobas
10387.99Kaya Cohn   El Cerrito, CA00:00.st 298978  461 Metromint Cycling
11399.74Page Robertson   Oakland, CA00:00.st 291028  472 Team TIBCO Juniors
12411.49Aliya Traficante   Chico, CA00:00.st 310825  475 Team TIBCO II
13423.24Elisabeth Johnson   Walnut Creek, CA00:00.st 306524  466 
14434.99Sabine Hoffmann   Berkeley, CA00:00.st 357744  465 Early Bird Womens Developmental Cycling Team
15446.74Kathryn Styer   San Francisco, CA00:00.st 309920  474 Early Bird Women's Development
16458.49Carla Cosentino   Los Gatos, CA00:00.st 255734  476 Code Three Womens Cycling
17470.24Jan Reed   Menlopark, CA00:00.st 310370  477 Velo Girls
18481.99Jacquelyn Schuler   San Francisco, CA00:00.st 334256  473 Early Bird Women's Development
19493.74Dana Freedman   Menlo Park, CA00:00.st 273191  464 Team TIBCO II
20505.49Angela Liu   Menlo Park, CA00:00.st 250461  468 Team TIBCO II
21Ruth PALMERI   00:00.st  471 

Women - Cat 3 - Open

 Place Points NameCity, StateTime USAC #BibTeam
1195.60Heather Ross   Felton, CA00:00.st 239612  557 Spokesman
2225.02Allyson Kutler   San Francisco, CA00:00.st 304509  554 Red Racing
3254.44Lindsay McAlpine   Kensington, CA00:00.st 316838  555 Dolce Vita Cycling
4283.86Lesley Jensen   Benicia, CA00:00.st 17778  562 One Team Racing
5313.28Birgit Cory   San Francisco, CA00:00.st 224694  560 Third Pillar
6342.70Cheryl Shwe   San Francisco, CA00:00.st 271152  558 RED Racing
7372.12Fiona Strouts   Menlo Park, CA00:00.st 338404  559 
8401.54Phyllis Olrich   Grass Valley, CA00:00.st 125288  556 Victory Velo
9430.96Michele Heaton   Santa Cruz, CA00:00.st 273618  551 bike trip symantec
10460.38Norma Hilton   Pacifica, CA00:00.st 196223  552 Peninsula Velo/Pomodoro
DNPIvy Wang   San Francisco, CA00:00.st 291752  561 Team Roaring Mouse
DNPJennifer Kalich   Aromas00:00.st 297754  553 Cal Giant Cycling Team
DNPErin Durkee   San Francisco, CA00:00.st 334810  550 MRB/Schwalbe

Women - Junior - 10-12

 Place Points NameCity, StateTime USAC #BibTeam
1Lauren Wolfe   San Jose, CA00:00.st 317172  175 SJBC

Women - Junior - 13-14

 Place Points NameCity, StateTime USAC #BibTeam
1Kristin Wolfe   Sanjose, CA00:00.st 289378  275 SJBC

Women - Junior - 15-16

 Place Points NameCity, StateTime USAC #BibTeam
1376.11Page Robertson   Oakland, CA00:00.st 291028  378 Team TIBCO Juniors
2428.25Pooja Bhatia   San Jose, CA00:00.st 306273  375 SJBC
3480.39Rebecca Hill   Campbell, CA00:00.st 280087  376 Los Gatos
4532.53Edith Lopez   Sanjose, CA00:00.st 304671  377 SJBC

Report missing or incorrect license numbers

Volkswagen
SpyUSACDFBonk BreakerCUORESierra NevadaShimano
UCI USA Cycling is the official governing body for all disciplines of competitive cycling in the United States. The 501c3, membership-based organization aims both to achieve sustained success in international cycling competition and to grow competitive cycling in America while delivering an exceptional customer experience.
View Children's Online Privacy Protection Policy
US Olympic Committee